GSAT0102 (GALILEO-FM2)

Last updated on Wed Sep 23 2026 00:03:18 GMT+0000 (Coordinated Universal Time)

1 37847U 11060B 26265.14842207 -.00000079 00000+0 00000+0 0 9991 2 37847 56.9553 339.1320 0002413 309.3666 51.5259 1.70476117 92785
UTC large
Height (km)
Speed (km/s)
/
Latitude / Longitude
Inclination (degrees)
Orbital Period (minutes)
Azimuth
Elevation
Range (km)
Doppler Factor

Next 0 passes for location: London (51.5072 / 0.1276)

No passes found over London.
GSAT0102 (GALILEO-FM2)